星链-32421 (STARLINK-32421)

导读

STARLINK-32421是美国星链项目的卫星,于2024年10月23日发射升空,归属SpaceX公司的星链星座网络。星链项目旨在构建全球卫星互联网星座,通过大规模低轨卫星组网,为全球偏远地区等各类场景提供高速网络接入服务,该卫星的入轨进一步扩充了星链星座的服务覆盖能力。

Basic Information
目录编号:
61628
目录名称:
STARLINK-32421
国际标识:
2024-191H
轨道中心:
EARTH
卫星名称:
星链-32421
卫星全名:
星链-32421 (STARLINK-32421)
卫星状态:
在轨 (已飞行681 天)
发射日期:
2024-10-23 UTC
国别 :
美国 (US)
星等 :
--
Orbit Information
数据来源 国际轨道数据
星历时间: 2026-09-03T17:36:44+0800
21小时前
查看轨道信息
半长轴: 6861.293km
偏心率: 0.0000441
轨道倾角: 43.001°
近地点辐角 182.167°
升交点赤经 231.001°
平近点角 177.918°
近地点: 482.853km
远地点: 483.459km
周期: 94.269分钟
每日圈数: 15.275444
Detailed Information
固有亮度:
5
最大亮度:
2.5
卫星平台:
Starlink V1.0
覆盖范围:
全球
运营商:
太空探索技术公司
运营商所在国:
美国
制造商(研发单位):
太空探索技术公司
制造商所在国:
美国
使用方式:
暂无
Satellite Introduction
Starlink 计划是 SpaceX 推出的全球卫星互联网项目,通过发射低轨道卫星,为全球尤其是偏远地区提供高速、低延迟的互联网服务。自 2019 年起,Starlink 已部署数千颗卫星,旨在缩小全球数字鸿沟,推动互联网普及。该项目还为军事、航空等行业提供通信支持,带来广泛经济效益。
2D Orbit Map
3D Orbit Map
Orbit Altitude Analysis Chart
Orbit Inclination Analysis Chart
Orbit Comprehensive Analysis Chart
View Comprehensive Chart
Conjunction Data List
Event ID Objects TCA Miss Dist (km) Collision Risk Probability Collision Risk Index (CRI) Action
CDM_260905-064906-162806-632621
2026-09-05T
06:49:26+0000
0.368 km
远距离
2.172916E-4 高风险 0.82
CDM_260904-184105-305206-162821
2026-09-04T
18:41:35+0000
1.787 km
极远距离
3.787363E-6 低风险 0.47
CDM_260902-113106-162806-402921
2026-09-02T
11:31:20+0000
2.350 km
极远距离
1.774077E-6 低风险 0.4
CDM_260903-025805-511206-162823
2026-09-03T
02:58:49+0000
2.494 km
极远距离
1.584123E-6 低风险 0.39
CDM_260905-082306-162806-632621
2026-09-05T
08:23:35+0000
2.286 km
极远距离
1.103142E-6 低风险 0.36
CDM_260905-051506-162806-632621
2026-09-05T
05:15:17+0000
2.580 km
极远距离
8.944232E-7 极低风险 0.34